| time (UTC) | temp C | wind direction | speed KPH | gust KPH | rain 1hr cm | rain 24hr cm | rain mn cm | humidity % | barometer mb |
| 20260505152640 | 22 | 198 | 4.8 | 22.5 | 0.00 | 0.00 | 0.00 | 42 | 999.8 |
| 20260505151145 | 21 | 240 | 4.8 | 1.6 | 0.00 | 0.00 | 0.00 | 45 | 1000.0 |
| 20260505122742 | 12 | 192 | 4.8 | 14.5 | 0.00 | 0.00 | 0.00 | 73 | 1001.9 |
| 20260505115738 | 10 | 217 | 4.8 | 11.3 | 0.00 | 0.00 | 0.00 | 79 | 1002.0 |
| 20260505114238 | 9 | 188 | 4.8 | 11.3 | 0.00 | 0.00 | 0.00 | 81 | 1002.5 |
| 20260505111238 | 8 | 0 | 1.6 | 6.4 | 0.00 | 0.00 | 0.00 | 87 | 1003.2 |
| 20260505101937 | 3 | 227 | 0.0 | 0.0 | 0.00 | 0.00 | 0.00 | 93 | 1003.2 |
| 20260505095734 | 3 | 227 | 0.0 | 0.0 | 0.00 | 0.00 | 0.00 | 92 | 1003.2 |
| 20260505094234 | 2 | 227 | 0.0 | 0.0 | 0.00 | 0.00 | 0.00 | 92 | 1003.3 |
| 20260505093433 | 2 | 227 | 0.0 | 0.0 | 0.00 | 0.00 | 0.00 | 91 | 1003.3 |
| 20260505091922 | 2 | 227 | 0.0 | 0.0 | 0.00 | 0.00 | 0.00 | 90 | 1003.2 |
| 20260505085735 | 3 | 227 | 0.0 | 0.0 | 0.00 | 0.00 | 0.00 | 90 | 1003.3 |
| 20260505084234 | 3 | 227 | 0.0 | 4.8 | 0.00 | 0.00 | 0.00 | 90 | 1003.5 |
| 20260505082737 | 3 | 227 | 0.0 | 1.6 | 0.00 | 0.00 | 0.00 | 90 | 1003.4 |
| 20260505081234 | 3 | 227 | 0.0 | 1.6 | 0.00 | 0.00 | 0.00 | 90 | 1003.7 |
| 20260505075734 | 3 | 227 | 0.0 | 1.6 | 0.00 | 0.00 | 0.00 | 88 | 1003.8 |
| 20260505074234 | 4 | 227 | 0.0 | 3.2 | 0.00 | 0.00 | 0.00 | 88 | 1003.7 |
| 20260505072733 | 4 | 227 | 0.0 | 3.2 | 0.00 | 0.00 | 0.00 | 88 | 1003.9 |
| 20260505071231 | 4 | 227 | 0.0 | 3.2 | 0.00 | 0.00 | 0.00 | 88 | 1003.9 |
| 20260505065730 | 4 | 228 | 0.0 | 1.6 | 0.00 | 0.00 | 0.00 | 89 | 1004.0 |
| 20260505064228 | 4 | 229 | 0.0 | 0.0 | 0.00 | 0.00 | 0.00 | 88 | 1004.2 |
| 20260505062726 | 4 | 228 | 0.0 | 3.2 | 0.00 | 0.00 | 0.00 | 87 | 1003.9 |
| 20260505061224 | 4 | 228 | 0.0 | 4.8 | 0.00 | 0.00 | 0.00 | 88 | 1004.2 |
| 20260505060413 | 4 | 228 | 1.6 | 4.8 | 0.00 | 0.00 | 0.00 | 88 | 1004.5 |
| 20260505054219 | 4 | 232 | 0.0 | 3.2 | 0.00 | 0.00 | 0.00 | 87 | 1004.5 |
| 20260505052716 | 4 | 233 | 0.0 | 1.6 | 0.00 | 0.00 | 0.00 | 87 | 1004.0 |
| 20260505051216 | 5 | 233 | 0.0 | 0.0 | 0.00 | 0.00 | 0.00 | 86 | 1004.1 |
| 20260505041213 | 6 | 233 | 0.0 | 4.8 | 0.00 | 0.00 | 0.00 | 82 | 1004.1 |
| 20260505035712 | 6 | 234 | 0.0 | 0.0 | 0.00 | 0.00 | 0.00 | 81 | 1004.1 |
| 20260505034215 | 6 | 234 | 0.0 | 0.0 | 0.00 | 0.00 | 0.00 | 79 | 1004.1 |
| 20260505033412 | 6 | 232 | 0.0 | 0.0 | 0.00 | 0.00 | 0.00 | 80 | 1004.0 |
| 20260505031212 | 6 | 232 | 0.0 | 0.0 | 0.00 | 0.00 | 0.00 | 82 | 1004.0 |
| 20260505025713 | 6 | 233 | 0.0 | 0.0 | 0.00 | 0.00 | 0.00 | 82 | 1004.1 |
| 20260505024208 | 5 | 233 | 0.0 | 0.0 | 0.00 | 0.00 | 0.00 | 82 | 1004.2 |
| 20260505022710 | 5 | 233 | 0.0 | 0.0 | 0.00 | 0.00 | 0.00 | 80 | 1004.0 |
| 20260505021216 | 6 | 232 | 0.0 | 0.0 | 0.00 | 0.00 | 0.00 | 79 | 1004.0 |
| 20260505020357 | 6 | 232 | 0.0 | 0.0 | 0.00 | 0.00 | 0.00 | 78 | 1004.0 |
| 20260505014202 | 7 | 232 | 0.0 | 0.0 | 0.00 | 0.00 | 0.00 | 75 | 1003.9 |
| 20260505013350 | 7 | 232 | 0.0 | 1.6 | 0.00 | 0.00 | 0.00 | 72 | 1003.8 |
| 20260505011200 | 8 | 232 | 0.0 | 8.0 | 0.00 | 0.00 | 0.00 | 71 | 1003.7 |
| 20260505005705 | 8 | 235 | 0.0 | 9.7 | 0.00 | 0.00 | 0.00 | 70 | 1003.5 |
| 20260505004201 | 9 | 263 | 1.6 | 11.3 | 0.00 | 0.00 | 0.00 | 68 | 1003.3 |
| 20260505002700 | 9 | 281 | 3.2 | 12.9 | 0.00 | 0.00 | 0.00 | 67 | 1002.9 |
| 20260504235702 | 10 | 223 | 3.2 | 14.5 | 0.00 | 0.00 | 0.00 | 63 | 1002.2 |
| 20260504234159 | 10 | 236 | 6.4 | 17.7 | 0.00 | 0.00 | 0.00 | 62 | 1002.0 |
| 20260504232656 | 11 | 213 | 3.2 | 12.9 | 0.00 | 0.00 | 0.00 | 60 | 1001.6 |
| 20260504231157 | 11 | 283 | 3.2 | 16.1 | 0.00 | 0.00 | 0.00 | 58 | 1001.5 |
| 20260504225656 | 12 | 0 | 4.8 | 16.1 | 0.00 | 0.00 | 0.00 | 55 | 1001.2 |
| 20260504224156 | 12 | 239 | 3.2 | 24.1 | 0.00 | 0.00 | 0.00 | 52 | 1001.1 |
| 20260504222657 | 12 | 296 | 6.4 | 19.3 | 0.00 | 0.00 | 0.00 | 50 | 1000.9 |
| 20260504221157 | 12 | 258 | 4.8 | 19.3 | 0.00 | 0.00 | 0.00 | 49 | 1000.8 |
| 20260504215656 | 13 | 281 | 4.8 | 20.9 | 0.00 | 0.00 | 0.00 | 48 | 1000.6 |
| 20260504214156 | 13 | 221 | 4.8 | 16.1 | 0.00 | 0.00 | 0.00 | 47 | 1000.5 |
| 20260504212656 | 13 | 268 | 6.4 | 20.9 | 0.00 | 0.00 | 0.00 | 45 | 1000.6 |
| 20260504211156 | 13 | 250 | 3.2 | 16.1 | 0.00 | 0.00 | 0.00 | 44 | 1000.4 |
| 20260504205656 | 13 | 250 | 6.4 | 22.5 | 0.00 | 0.00 | 0.00 | 43 | 1000.3 |
| 20260504204156 | 13 | 278 | 4.8 | 17.7 | 0.00 | 0.00 | 0.00 | 44 | 1000.2 |
| 20260504202650 | 12 | 19 | 6.4 | 19.3 | 0.00 | 0.00 | 0.00 | 43 | 1000.2 |
| 20260504201152 | 13 | 256 | 4.8 | 19.3 | 0.00 | 0.00 | 0.00 | 44 | 1000.3 |
| 20260504195650 | 13 | 236 | 3.2 | 17.7 | 0.00 | 0.00 | 0.00 | 44 | 1000.3 |
| 20260504192651 | 12 | 296 | 8.0 | 29.0 | 0.00 | 0.08 | 0.00 | 44 | 1000.3 |
| 20260504191150 | 12 | 245 | 9.7 | 25.7 | 0.00 | 0.08 | 0.00 | 45 | 1000.2 |
| 20260504190340 | 12 | 293 | 6.4 | 22.5 | 0.00 | 0.08 | 0.00 | 42 | 1000.2 |
| 20260504184151 | 12 | 242 | 4.8 | 20.9 | 0.00 | 0.08 | 0.00 | 35 | 1000.2 |
| 20260504183339 | 12 | 236 | 9.7 | 24.1 | 0.00 | 0.08 | 0.00 | 33 | 1000.2 |
| 20260504181150 | 13 | 281 | 6.4 | 22.5 | 0.00 | 0.08 | 0.00 | 32 | 1000.4 |
| 20260504175651 | 13 | 313 | 4.8 | 30.6 | 0.00 | 0.08 | 0.00 | 31 | 1000.3 |
| 20260504174150 | 13 | 273 | 6.4 | 22.5 | 0.00 | 0.08 | 0.00 | 30 | 1000.5 |
| 20260504172650 | 13 | 304 | 4.8 | 17.7 | 0.00 | 0.08 | 0.00 | 31 | 1000.4 |